When you browse on this site, cookies collect data to enhance your experience and personalize the content and advertising you see.
Visit our Privacy Policy to learn more. By continuing to use the site, you agree to this use of cookies and data.
  • In Czech Republic
  • List of Countries
  • For 7 days
  • Water Temperature
  • Satellite Maps
  • Weather Map
  • Weather Widgets
  • user-avatar
    Login

    Hourly Weather Ali Bayramli

    Today, 17 December, Monday

    Time Temperature Precipitation Wind Pressure Humidity
    00:00 +4°C° 0 mm 6 mps 769 mmHg 77%
    01:00 +4°C° 0 mm 6 mps 769 mmHg 77%
    02:00 +4°C° 0 mm 6 mps 769 mmHg 77%
    03:00 +5°C° 0 mm 5 mps 769 mmHg 76%
    04:00 +5°C° 0 mm 5 mps 769 mmHg 77%
    05:00 +5°C° 0 mm 4 mps 769 mmHg 77%
    06:00 +5°C° 0 mm 4 mps 768 mmHg 77%
    07:00 +5°C° 0 mm 4 mps 768 mmHg 77%
    08:00 +6°C° 0 mm 4 mps 768 mmHg 77%
    09:00 +6°C° 0 mm 4 mps 768 mmHg 77%
    10:00 +6°C° 0 mm 4 mps 768 mmHg 77%
    11:00 +6°C° 0 mm 4 mps 767 mmHg 76%
    12:00 +6°C° 0 mm 4 mps 767 mmHg 76%
    13:00 +6°C° 0 mm 4 mps 767 mmHg 76%
    14:00 +6°C° 0 mm 4 mps 767 mmHg 76%
    15:00 +7°C° 0 mm 4 mps 767 mmHg 76%
    16:00 +7°C° 0.1 mm 5 mps 767 mmHg 77%
    17:00 +6°C° 0.1 mm 5 mps 767 mmHg 78%
    18:00 +6°C° 0.1 mm 5 mps 767 mmHg 79%
    19:00 +6°C° 0.3 mm 5 mps 767 mmHg 80%
    20:00 +7°C° 0.3 mm 5 mps 766 mmHg 81%
    21:00 +7°C° 0.3 mm 5 mps 766 mmHg 82%
    22:00 +7°C° 0.5 mm 5 mps 766 mmHg 83%
    23:00 +7°C° 0.5 mm 5 mps 766 mmHg 84%

    Tomorrow, 18 December, Tuesday

    Time Temperature Precipitation Wind Pressure Humidity
    00:00 +7°C° 0.5 mm 6 mps 766 mmHg 85%
    01:00 +7°C° 0.4 mm 6 mps 766 mmHg 85%
    02:00 +7°C° 0.4 mm 6 mps 765 mmHg 85%
    03:00 +7°C° 0.4 mm 5 mps 765 mmHg 85%
    04:00 +6°C° 0.7 mm 5 mps 765 mmHg 85%
    05:00 +6°C° 0.7 mm 5 mps 765 mmHg 85%
    06:00 +6°C° 0.7 mm 5 mps 765 mmHg 85%
    07:00 +6°C° 0.7 mm 5 mps 766 mmHg 84%
    08:00 +6°C° 0.7 mm 4 mps 766 mmHg 84%
    09:00 +6°C° 0.7 mm 4 mps 766 mmHg 84%
    10:00 +6°C° 0.4 mm 4 mps 766 mmHg 82%
    11:00 +6°C° 0.4 mm 4 mps 766 mmHg 81%
    12:00 +6°C° 0.4 mm 4 mps 766 mmHg 80%
    13:00 +7°C° 0.1 mm 3 mps 766 mmHg 78%
    14:00 +8°C° 0.1 mm 3 mps 766 mmHg 77%
    15:00 +8°C° 0.1 mm 3 mps 766 mmHg 75%
    16:00 +8°C° 0 mm 3 mps 766 mmHg 77%
    17:00 +7°C° 0 mm 3 mps 767 mmHg 78%
    18:00 +7°C° 0 mm 3 mps 767 mmHg 79%
    19:00 +7°C° 0 mm 3 mps 768 mmHg 79%
    20:00 +7°C° 0 mm 3 mps 768 mmHg 79%
    21:00 +7°C° 0 mm 3 mps 768 mmHg 79%
    22:00 +7°C° 0 mm 3 mps 768 mmHg 80%
    23:00 +7°C° 0 mm 2 mps 768 mmHg 80%

    Day after tomorrow, 19 December, Wednesday

    Time Temperature Precipitation Wind Pressure Humidity
    00:00 +6°C° 0 mm 2 mps 768 mmHg 81%
    01:00 +6°C° 0 mm 2 mps 768 mmHg 81%
    02:00 +6°C° 0 mm 2 mps 768 mmHg 81%
    03:00 +6°C° 0 mm 2 mps 768 mmHg 81%
    04:00 +6°C° 0 mm 2 mps 768 mmHg 81%
    05:00 +7°C° 0 mm 1 mps 768 mmHg 81%
    06:00 +7°C° 0 mm 1 mps 768 mmHg 81%
    07:00 +7°C° 0 mm 1 mps 768 mmHg 80%
    08:00 +8°C° 0 mm 1 mps 769 mmHg 78%
    09:00 +7°C° 0 mm 2 mps 769 mmHg 76%
    10:00 +8°C° 0 mm 2 mps 769 mmHg 74%
    11:00 +8°C° 0 mm 2 mps 768 mmHg 71%
    12:00 +9°C° 0 mm 2 mps 768 mmHg 69%
    13:00 +9°C° 0 mm 2 mps 768 mmHg 68%
    14:00 +9°C° 0 mm 2 mps 767 mmHg 68%
    15:00 +9°C° 0 mm 2 mps 767 mmHg 67%
    16:00 +9°C° 0 mm 2 mps 767 mmHg 70%
    17:00 +9°C° 0 mm 2 mps 767 mmHg 73%
    18:00 +9°C° 0 mm 2 mps 767 mmHg 76%
    19:00 +9°C° 0.1 mm 2 mps 767 mmHg 77%
    20:00 +9°C° 0.1 mm 2 mps 767 mmHg 79%
    21:00 +9°C° 0.1 mm 3 mps 767 mmHg 81%
    22:00 +9°C° 0.1 mm 3 mps 767 mmHg 82%
    23:00 +9°C° 0.1 mm 3 mps 766 mmHg 83%

    20 December, Thursday

    Time Temperature Precipitation Wind Pressure Humidity
    00:00 +9°C° 0.1 mm 3 mps 766 mmHg 84%
    01:00 +9°C° 0.3 mm 3 mps 766 mmHg 85%
    02:00 +9°C° 0.3 mm 3 mps 766 mmHg 85%
    03:00 +9°C° 0.3 mm 3 mps 765 mmHg 86%
    04:00 +9°C° 0.4 mm 3 mps 765 mmHg 86%
    05:00 +9°C° 0.4 mm 3 mps 765 mmHg 87%
    06:00 +9°C° 0.4 mm 3 mps 765 mmHg 87%
    07:00 +9°C° 0.3 mm 3 mps 765 mmHg 86%
    08:00 +9°C° 0.3 mm 3 mps 765 mmHg 84%
    09:00 +9°C° 0.3 mm 3 mps 765 mmHg 82%
    10:00 +9°C° 0.1 mm 3 mps 764 mmHg 80%
    11:00 +9°C° 0.1 mm 3 mps 764 mmHg 78%
    12:00 +9°C° 0.1 mm 3 mps 764 mmHg 77%
    13:00 +10°C° 0.1 mm 2 mps 763 mmHg 76%
    14:00 +10°C° 0.1 mm 2 mps 763 mmHg 75%
    15:00 +10°C° 0.1 mm 2 mps 762 mmHg 74%
    16:00 +10°C° 0.1 mm 2 mps 763 mmHg 75%
    17:00 +10°C° 0.1 mm 1 mps 763 mmHg 77%
    18:00 +10°C° 0.1 mm 1 mps 763 mmHg 79%
    19:00 +10°C° 0.1 mm 1 mps 763 mmHg 79%
    20:00 +9°C° 0.1 mm 2 mps 764 mmHg 80%
    21:00 +9°C° 0.1 mm 2 mps 764 mmHg 80%
    22:00 +8°C° 0 mm 2 mps 764 mmHg 80%
    23:00 +8°C° 0 mm 2 mps 764 mmHg 80%

    21 December, Friday

    Time Temperature Precipitation Wind Pressure Humidity
    00:00 +8°C° 0 mm 2 mps 764 mmHg 81%
    01:00 +8°C° 0 mm 2 mps 764 mmHg 81%
    02:00 +7°C° 0 mm 2 mps 764 mmHg 81%
    03:00 +7°C° 0 mm 2 mps 764 mmHg 81%
    04:00 +7°C° 0 mm 2 mps 764 mmHg 81%
    05:00 +7°C° 0 mm 2 mps 764 mmHg 81%
    06:00 +7°C° 0 mm 2 mps 764 mmHg 81%
    07:00 +8°C° 0 mm 2 mps 765 mmHg 79%
    08:00 +8°C° 0 mm 2 mps 765 mmHg 78%
    09:00 +9°C° 0 mm 1 mps 765 mmHg 76%
    10:00 +9°C° 0 mm 2 mps 765 mmHg 75%
    11:00 +10°C° 0 mm 2 mps 765 mmHg 73%
    12:00 +10°C° 0 mm 2 mps 765 mmHg 72%
    13:00 +10°C° 0 mm 2 mps 765 mmHg 72%
    14:00 +10°C° 0 mm 2 mps 765 mmHg 72%
    15:00 +10°C° 0 mm 3 mps 765 mmHg 71%
    16:00 +10°C° 0 mm 3 mps 765 mmHg 74%
    17:00 +9°C° 0 mm 3 mps 765 mmHg 77%
    18:00 +9°C° 0 mm 3 mps 766 mmHg 80%
    19:00 +9°C° 0 mm 3 mps 766 mmHg 81%
    20:00 +8°C° 0 mm 3 mps 766 mmHg 82%
    21:00 +8°C° 0 mm 3 mps 766 mmHg 83%
    22:00 +8°C° 0 mm 2 mps 766 mmHg 84%
    23:00 +7°C° 0 mm 2 mps 765 mmHg 85%

    22 December, Saturday

    Time Temperature Precipitation Wind Pressure Humidity
    00:00 +7°C° 0 mm 2 mps 765 mmHg 86%
    01:00 +7°C° 0 mm 2 mps 765 mmHg 87%
    02:00 +8°C° 0 mm 1 mps 765 mmHg 88%
    03:00 +7°C° 0 mm 1 mps 765 mmHg 89%
    04:00 +7°C° 0 mm 1 mps 765 mmHg 89%
    05:00 +7°C° 0 mm 1 mps 765 mmHg 89%
    06:00 +7°C° 0 mm 1 mps 765 mmHg 89%
    07:00 +8°C° 0 mm 1 mps 765 mmHg 87%
    08:00 +8°C° 0 mm 1 mps 765 mmHg 84%
    09:00 +9°C° 0 mm 1 mps 765 mmHg 81%
    10:00 +10°C° 0 mm 1 mps 764 mmHg 79%
    11:00 +10°C° 0 mm 1 mps 764 mmHg 77%
    12:00 +10°C° 0 mm 2 mps 763 mmHg 75%
    13:00 +10°C° 0 mm 2 mps 763 mmHg 74%
    14:00 +10°C° 0 mm 2 mps 762 mmHg 74%
    15:00 +10°C° 0 mm 2 mps 761 mmHg 73%
    16:00 +10°C° 0 mm 2 mps 761 mmHg 75%
    17:00 +10°C° 0 mm 2 mps 761 mmHg 78%
    18:00 +10°C° 0 mm 2 mps 761 mmHg 80%
    19:00 +9°C° 0.1 mm 2 mps 761 mmHg 81%
    20:00 +9°C° 0.1 mm 2 mps 761 mmHg 82%
    21:00 +9°C° 0.1 mm 2 mps 761 mmHg 83%
    22:00 +9°C° 0.1 mm 2 mps 760 mmHg 83%
    23:00 +8°C° 0.1 mm 2 mps 760 mmHg 82%
    Show more